Demopolis Municipal Airport, AL

8:17 AM CDT on September 19, 2019 (GMT -0500)
Demopolis Municipal Airport

Weather History for KDYA - July, 2019

Change the Weather History Date:

Thursday, July 11, 2019

  Actual Average (WUND) Record (WUND)
Temperature  
Mean Temperature 80 °F -  
Max Temperature 87 °F - - (-1)
Min Temperature 74 °F - - (-1)
Cooling Degree Days 15    
Growing Degree Days 30 (Base 50)    
Moisture  
Dew Point 74 °F    
Average Humidity 87    
Maximum Humidity 100    
Minimum Humidity 63    
Precipitation  
Precipitation 0.00 in - - ()
Sea Level Pressure  
Sea Level Pressure 29.91 in    
Wind  
Wind Speed 1 mph (East)    
Max Wind Speed 6 mph    
Max Gust Speed -    
Visibility 6 miles    
Events      
Averages and records for this station are not official NWS values.
T = Trace of Precipitation, MM = Missing Value Source: NWS Daily Summary

Daily Weather History Graph

Daily Weather History Graph

Search for Another Location

Airport or City:

Astronomy

Jul. 11, 2019 Rise Set
Actual Time 5:52 AM CDT 8:01 PM CDT
Civil Twilight 5:24 AM CDT 8:29 PM CDT
Nautical Twilight 4:50 AM CDT 9:03 PM CDT
Astronomical Twilight 4:13 AM CDT 9:40 PM CDT
Moon 3:23 PM CDT (7/11) 1:52 AM CDT (7/11)
Length of Visible Light 15h 04m
Length of Day
14h 08m
Waxing Gibbous, 74% of the Moon is Illuminated
Jul 11
Waxing Gibbous
Jul 16
Full
Jul 24
Last Quarter
Jul 31
New
Aug 7
First Quarter

Hourly Weather History & Observations

Time (CDT) Temp. Heat Index Dew Point Humidity Pressure Visibility Wind Dir Wind Speed Gust Speed Precip Events Conditions
12:15 AM 79.7 °F - 73.6 °F 81% 29.93 in 7.0 mi North 4.6 mph - N/A   Clear
12:35 AM 79.0 °F - 73.6 °F 83% 29.92 in 10.0 mi Calm Calm - N/A   Clear
12:55 AM 78.6 °F - 73.6 °F 84% 29.91 in 7.0 mi Calm Calm - N/A   Clear
1:15 AM 78.4 °F - 73.8 °F 85% 29.91 in 7.0 mi Calm Calm - N/A   Clear
1:35 AM 77.4 °F - 73.6 °F 88% 29.89 in 7.0 mi Calm Calm - N/A   Clear
1:55 AM 76.6 °F - 73.6 °F 90% 29.89 in 7.0 mi Calm Calm - N/A   Clear
2:15 AM 76.1 °F - 73.6 °F 92% 29.88 in 7.0 mi Calm Calm - N/A   Clear
2:35 AM 76.1 °F - 74.1 °F 94% 29.87 in 7.0 mi Calm Calm - N/A   Clear
2:55 AM 76.1 °F - 73.9 °F 93% 29.87 in 7.0 mi Calm Calm - N/A   Clear
3:15 AM 75.4 °F - 73.8 °F 95% 29.87 in 7.0 mi Calm Calm - N/A   Clear
3:35 AM 75.4 °F - 74.1 °F 96% 29.87 in 5.0 mi Calm Calm - N/A   Clear
3:55 AM 75.6 °F - 74.3 °F 96% 29.88 in 7.0 mi Calm Calm - N/A   Clear
4:15 AM 74.7 °F - 73.4 °F 96% 29.88 in 7.0 mi Calm Calm - N/A   Clear
4:35 AM 74.5 °F - 74.1 °F 99% 29.88 in 4.0 mi Calm Calm - N/A   Clear
4:55 AM 74.3 °F - 74.3 °F 100% 29.89 in 5.0 mi Calm Calm - N/A   Clear
5:15 AM 74.8 °F - 74.8 °F 100% 29.90 in 5.0 mi Calm Calm - N/A   Scattered Clouds
5:35 AM 74.3 °F - 74.3 °F 100% 29.90 in 4.0 mi Calm Calm - N/A   Scattered Clouds
5:55 AM - - - N/A% 29.90 in 5.0 mi Calm Calm - N/A   Scattered Clouds
6:15 AM - - - N/A% 29.91 in 5.0 mi North 3.5 mph - N/A   Haze
6:35 AM - - - N/A% 29.92 in 5.0 mi Calm Calm - N/A   Haze
6:55 AM - - - N/A% 29.92 in 3.0 mi Calm Calm - N/A   Scattered Clouds
7:15 AM - - - N/A% 29.93 in 4.0 mi Calm Calm - N/A   Haze
7:35 AM 77.2 °F - 77.2 °F 100% 29.93 in 5.0 mi Calm Calm - N/A   Mostly Cloudy
7:55 AM 79.9 °F - 75.6 °F 87% 29.94 in 5.0 mi East 3.5 mph - N/A   Scattered Clouds
8:15 AM 81.9 °F 88.0 °F 74.5 °F 78% 29.94 in 10.0 mi ESE 3.5 mph - N/A   Scattered Clouds
8:35 AM 82.6 °F 89.4 °F 74.7 °F 77% 29.94 in 7.0 mi ESE 5.8 mph - N/A   Scattered Clouds
8:55 AM 83.5 °F 90.6 °F 74.5 °F 74% 29.94 in 7.0 mi SSE 4.6 mph - N/A   Mostly Cloudy
9:15 AM 84.7 °F 92.8 °F 74.7 °F 72% 29.94 in 7.0 mi Calm Calm - N/A   Scattered Clouds
9:35 AM 85.6 °F 93.0 °F 73.8 °F 67% 29.94 in 7.0 mi Calm Calm - N/A   Scattered Clouds
9:55 AM 86.7 °F 95.0 °F 74.1 °F 66% 29.94 in 7.0 mi Calm Calm - N/A   Scattered Clouds
10:15 AM 87.4 °F 95.3 °F 73.6 °F 63% 29.94 in 7.0 mi Calm Calm - N/A   Scattered Clouds